TimeEEST,TemperatureF,Dew PointF,Humidity,Sea Level PressureIn,VisibilityMPH,Wind Direction,Wind SpeedMPH,Gust SpeedMPH,PrecipitationIn,Events,Conditions,WindDirDegrees,DateUTC
2:50 AM,41.0,39.2,93,30.18,-9999.0,SE,3.5,-,N/A,,Clear,130,2012-10-19 23:50:00
3:00 AM,47,39,66,,9,Calm,Calm,,,,Partly Cloudy,,2012-10-20 00:00:00
3:50 AM,42.8,39.2,87,30.18,-9999.0,SE,4.6,-,N/A,,Clear,130,2012-10-20 00:50:00
4:50 AM,42.8,41.0,93,30.18,-9999.0,ESE,6.9,-,N/A,,Clear,110,2012-10-20 01:50:00
5:50 AM,41.0,39.2,93,30.15,-9999.0,East,3.5,-,N/A,,Clear,80,2012-10-20 02:50:00
6:50 AM,41.0,39.2,93,30.15,6.2,East,9.2,-,N/A,,Scattered Clouds,100,2012-10-20 03:50:00
7:50 AM,46.4,41.0,81,30.15,6.2,SE,6.9,-,N/A,,Mostly Cloudy,130,2012-10-20 04:50:00
8:50 AM,51.8,42.8,71,30.15,6.2,ESE,9.2,-,N/A,,Mostly Cloudy,110,2012-10-20 05:50:00
9:00 AM,50,42,67,,9,North,2.3,,,,Mostly Cloudy,350,2012-10-20 06:00:00
9:50 AM,53.6,41.0,62,30.18,6.2,SE,11.5,-,N/A,,Mostly Cloudy,140,2012-10-20 06:50:00
10:50 AM,57.2,41.0,55,30.18,6.2,ESE,18.4,-,N/A,,Mostly Cloudy,110,2012-10-20 07:50:00
11:50 AM,59.0,39.2,48,30.15,6.2,ESE,17.3,-,N/A,,Mostly Cloudy,110,2012-10-20 08:50:00
12:50 PM,64.4,33.8,32,30.15,6.2,SSE,16.1,-,N/A,,Mostly Cloudy,150,2012-10-20 09:50:00
1:50 PM,62.6,32.0,32,30.12,6.2,SSE,16.1,-,N/A,,Mostly Cloudy,160,2012-10-20 10:50:00
2:50 PM,60.8,33.8,36,30.12,6.2,SSE,17.3,-,N/A,,Mostly Cloudy,150,2012-10-20 11:50:00
3:00 PM,67,35,20,,9,SE,6.9,,,,Partly Cloudy,140,2012-10-20 12:00:00
3:50 PM,59.0,35.6,42,30.15,6.2,SE,10.4,-,N/A,Thunderstorm,Scattered Clouds,130,2012-10-20 12:50:00
4:50 PM,53.6,37.4,54,30.15,6.2,North,9.2,-,N/A,Rain,Light Rain Showers,350,2012-10-20 13:50:00
5:50 PM,51.8,39.2,62,30.15,6.2,ENE,9.2,-,N/A,Rain,Light Rain Showers,70,2012-10-20 14:50:00
6:50 PM,53.6,39.2,58,30.15,3.7,SE,15.0,-,N/A,Rain-Thunderstorm,Light Thunderstorms and Rain,140,2012-10-20 15:50:00
7:50 PM,50.0,42.8,76,30.21,4.3,SSE,8.1,-,N/A,Rain-Thunderstorm,Light Thunderstorms and Rain,160,2012-10-20 16:50:00
8:50 PM,48.2,42.8,82,30.21,5.0,North,6.9,-,N/A,Rain,Light Rain,10,2012-10-20 17:50:00
9:00 PM,55,46,64,,9,NE,2.3,,,Thunderstorm,Light Thunderstorm,50,2012-10-20 18:00:00
9:50 PM,46.4,41.0,81,30.21,5.0,East,12.7,-,N/A,Rain,Light Rain,90,2012-10-20 18:50:00
10:50 PM,46.4,41.0,81,30.21,6.2,ENE,5.8,-,N/A,Rain,Light Rain,70,2012-10-20 19:50:00
11:50 PM,46.4,41.0,81,30.18,6.2,SE,5.8,-,N/A,,Overcast,130,2012-10-20 20:50:00